When you browse on this site, cookies collect data to enhance your experience and personalize the content and advertising you see.
Visit our Privacy Policy to learn more. By continuing to use the site, you agree to this use of cookies and data.
  • In Hungary
  • List of Countries
  • For 7 days
  • Water Temperature
  • Weather Map
  • News
  • Weather Widgets
  • user-avatar
    Login

    Hourly Weather Edison

    Today, 15 November, Friday

    Time Temperature Precipitation Wind Pressure Humidity
    00:00 +2°C° 0 mm 2 mps 766 mmHg 61%
    01:00 +2°C° 0 mm 2 mps 766 mmHg 67%
    02:00 +1°C° 0 mm 2 mps 765 mmHg 66%
    03:00 +1°C° 0 mm 2 mps 765 mmHg 65%
    04:00 +1°C° 0 mm 2 mps 765 mmHg 63%
    05:00 +1°C° 0 mm 2 mps 765 mmHg 61%
    06:00 +1°C° 0 mm 2 mps 765 mmHg 58%
    07:00 +1°C° 0 mm 2 mps 765 mmHg 55%
    08:00 +2°C° 0 mm 2 mps 765 mmHg 52%
    09:00 +4°C° 0 mm 2 mps 765 mmHg 49%
    10:00 +4°C° 0 mm 3 mps 765 mmHg 46%
    11:00 +5°C° 0 mm 3 mps 764 mmHg 45%
    12:00 +8°C° 0 mm 3 mps 764 mmHg 45%
    13:00 +9°C° 0 mm 3 mps 763 mmHg 45%
    14:00 +7°C° 0 mm 4 mps 763 mmHg 48%
    15:00 +7°C° 0 mm 4 mps 763 mmHg 51%
    16:00 +6°C° 0 mm 4 mps 763 mmHg 54%
    17:00 +5°C° 0 mm 3 mps 763 mmHg 56%
    18:00 +4°C° 0 mm 3 mps 764 mmHg 59%
    19:00 +3°C° 0 mm 3 mps 764 mmHg 62%
    20:00 +3°C° 0 mm 3 mps 764 mmHg 65%
    21:00 +3°C° 0 mm 3 mps 764 mmHg 68%
    22:00 +2°C° 0 mm 3 mps 765 mmHg 71%
    23:00 +1°C° 0 mm 4 mps 765 mmHg 69%

    Tomorrow, 16 November, Saturday

    Time Temperature Precipitation Wind Pressure Humidity
    00:00 +1°C° 0 mm 4 mps 765 mmHg 68%
    01:00 0°C° 0 mm 5 mps 765 mmHg 67%
    02:00 0°C° 0 mm 5 mps 766 mmHg 67%
    03:00 -1°C° 0 mm 5 mps 766 mmHg 66%
    04:00 -1°C° 0 mm 5 mps 766 mmHg 66%
    05:00 -3°C° 0 mm 6 mps 767 mmHg 56%
    06:00 -4°C° 0 mm 6 mps 767 mmHg 45%
    07:00 -6°C° 0 mm 7 mps 768 mmHg 35%
    08:00 -4°C° 0 mm 7 mps 768 mmHg 32%
    09:00 -3°C° 0 mm 7 mps 769 mmHg 29%
    10:00 -2°C° 0 mm 7 mps 769 mmHg 27%
    11:00 -1°C° 0 mm 6 mps 769 mmHg 25%
    12:00 -1°C° 0 mm 6 mps 769 mmHg 24%
    13:00 +1°C° 0 mm 6 mps 768 mmHg 22%
    14:00 +1°C° 0 mm 5 mps 768 mmHg 23%
    15:00 +1°C° 0 mm 5 mps 768 mmHg 24%
    16:00 +1°C° 0 mm 5 mps 768 mmHg 26%
    17:00 0°C° 0 mm 5 mps 768 mmHg 28%
    18:00 -1°C° 0 mm 5 mps 769 mmHg 31%
    19:00 -2°C° 0 mm 5 mps 769 mmHg 34%
    20:00 -2°C° 0 mm 5 mps 769 mmHg 35%
    21:00 -2°C° 0 mm 5 mps 769 mmHg 36%
    22:00 -2°C° 0 mm 5 mps 769 mmHg 37%
    23:00 -2°C° 0 mm 5 mps 768 mmHg 40%

    Day after tomorrow, 17 November, Sunday

    Time Temperature Precipitation Wind Pressure Humidity
    00:00 -2°C° 0 mm 5 mps 768 mmHg 42%
    01:00 -2°C° 0 mm 5 mps 768 mmHg 44%
    02:00 -2°C° 0 mm 5 mps 767 mmHg 47%
    03:00 -2°C° 0 mm 5 mps 767 mmHg 50%
    04:00 -2°C° 0 mm 5 mps 766 mmHg 53%
    05:00 -3°C° 0 mm 6 mps 766 mmHg 55%
    06:00 -3°C° 0 mm 6 mps 766 mmHg 57%
    07:00 -3°C° 0 mm 6 mps 766 mmHg 59%
    08:00 -2°C° 0 mm 6 mps 766 mmHg 59%
    09:00 -2°C° 0 mm 6 mps 766 mmHg 59%
    10:00 -1°C° 0 mm 6 mps 766 mmHg 59%
    11:00 -1°C° 0 mm 6 mps 765 mmHg 61%
    12:00 +1°C° 0 mm 6 mps 764 mmHg 64%
    13:00 +2°C° 0 mm 6 mps 764 mmHg 66%
    14:00 +2°C° 0 mm 5 mps 763 mmHg 67%
    15:00 +2°C° 0 mm 5 mps 763 mmHg 68%
    16:00 +2°C° 0 mm 5 mps 762 mmHg 69%
    17:00 +2°C° 0 mm 5 mps 762 mmHg 70%
    18:00 +2°C° 0 mm 5 mps 762 mmHg 70%
    19:00 +2°C° 0 mm 5 mps 761 mmHg 71%
    20:00 +2°C° 0 mm 5 mps 761 mmHg 71%
    21:00 +2°C° 0 mm 5 mps 760 mmHg 72%
    22:00 +2°C° 0 mm 5 mps 760 mmHg 72%
    23:00 +2°C° 0 mm 5 mps 759 mmHg 73%

    18 November, Monday

    Time Temperature Precipitation Wind Pressure Humidity
    00:00 +1°C° 0 mm 5 mps 759 mmHg 74%
    01:00 +1°C° 0 mm 5 mps 758 mmHg 75%
    02:00 +1°C° 0 mm 5 mps 758 mmHg 74%
    03:00 +1°C° 0 mm 5 mps 758 mmHg 74%
    04:00 +1°C° 0 mm 5 mps 757 mmHg 74%
    05:00 +1°C° 0 mm 5 mps 757 mmHg 74%
    06:00 +1°C° 0 mm 5 mps 757 mmHg 74%
    07:00 +1°C° 0 mm 5 mps 756 mmHg 73%
    08:00 +1°C° 0 mm 4 mps 756 mmHg 73%
    09:00 +3°C° 0 mm 4 mps 756 mmHg 72%
    10:00 +3°C° 0 mm 3 mps 756 mmHg 71%
    11:00 +3°C° 0 mm 3 mps 755 mmHg 71%
    12:00 +3°C° 0 mm 3 mps 754 mmHg 71%
    13:00 +3°C° 0 mm 3 mps 754 mmHg 71%
    14:00 +4°C° 0 mm 3 mps 754 mmHg 72%
    15:00 +4°C° 0 mm 3 mps 754 mmHg 73%
    16:00 +5°C° 0 mm 2 mps 753 mmHg 74%
    17:00 +4°C° 0 mm 2 mps 753 mmHg 76%
    18:00 +4°C° 0 mm 2 mps 753 mmHg 78%
    19:00 +4°C° 0 mm 2 mps 753 mmHg 81%
    20:00 +3°C° 0 mm 2 mps 753 mmHg 82%
    21:00 +3°C° 0 mm 2 mps 753 mmHg 84%
    22:00 +4°C° 0 mm 1 mps 753 mmHg 86%
    23:00 +3°C° 0 mm 1 mps 753 mmHg 87%

    19 November, Tuesday

    Time Temperature Precipitation Wind Pressure Humidity
    00:00 +2°C° 0 mm 2 mps 753 mmHg 87%
    01:00 +2°C° 0 mm 2 mps 753 mmHg 87%
    02:00 +2°C° 0 mm 2 mps 753 mmHg 87%
    03:00 +2°C° 0 mm 2 mps 753 mmHg 86%
    04:00 +2°C° 0 mm 2 mps 753 mmHg 85%
    05:00 +2°C° 0 mm 2 mps 754 mmHg 84%
    06:00 +2°C° 0 mm 2 mps 754 mmHg 82%
    07:00 +2°C° 0 mm 2 mps 754 mmHg 81%
    08:00 +4°C° 0 mm 2 mps 755 mmHg 77%
    09:00 +5°C° 0 mm 2 mps 755 mmHg 73%
    10:00 +5°C° 0 mm 3 mps 755 mmHg 68%
    11:00 +7°C° 0 mm 3 mps 755 mmHg 64%
    12:00 +8°C° 0 mm 3 mps 755 mmHg 59%
    13:00 +9°C° 0 mm 3 mps 755 mmHg 54%
    14:00 +9°C° 0 mm 3 mps 755 mmHg 57%
    15:00 +9°C° 0 mm 3 mps 756 mmHg 59%
    16:00 +8°C° 0 mm 3 mps 756 mmHg 62%
    17:00 +7°C° 0 mm 3 mps 756 mmHg 64%
    18:00 +7°C° 0 mm 2 mps 757 mmHg 67%
    19:00 +6°C° 0 mm 2 mps 757 mmHg 70%
    20:00 +6°C° 0 mm 2 mps 757 mmHg 72%
    21:00 +5°C° 0 mm 2 mps 757 mmHg 75%
    22:00 +5°C° 0 mm 2 mps 758 mmHg 78%
    23:00 +5°C° 0 mm 2 mps 758 mmHg 79%

    20 November, Wednesday

    Time Temperature Precipitation Wind Pressure Humidity
    00:00 +6°C° 0 mm 1 mps 758 mmHg 80%
    01:00 +5°C° 0 mm 1 mps 758 mmHg 82%
    02:00 +4°C° 0 mm 2 mps 758 mmHg 82%
    03:00 +4°C° 0 mm 2 mps 758 mmHg 83%
    04:00 +4°C° 0 mm 2 mps 758 mmHg 83%
    05:00 +4°C° 0 mm 2 mps 759 mmHg 84%
    06:00 +3°C° 0 mm 3 mps 759 mmHg 84%
    07:00 +3°C° 0 mm 3 mps 759 mmHg 84%
    08:00 +4°C° 0 mm 3 mps 760 mmHg 78%
    09:00 +5°C° 0 mm 3 mps 760 mmHg 71%
    10:00 +7°C° 0 mm 3 mps 760 mmHg 65%
    11:00 +7°C° 0 mm 4 mps 760 mmHg 61%
    12:00 +8°C° 0 mm 4 mps 760 mmHg 58%
    13:00 +10°C° 0 mm 4 mps 760 mmHg 55%
    14:00 +10°C° 0 mm 4 mps 760 mmHg 57%
    15:00 +10°C° 0 mm 4 mps 760 mmHg 60%
    16:00 +8°C° 0 mm 4 mps 760 mmHg 62%
    17:00 +8°C° 0 mm 4 mps 760 mmHg 65%
    18:00 +8°C° 0 mm 3 mps 761 mmHg 68%
    19:00 +7°C° 0 mm 2 mps 761 mmHg 71%
    20:00 +7°C° 0 mm 2 mps 761 mmHg 74%
    21:00 +6°C° 0 mm 2 mps 761 mmHg 76%
    22:00 +6°C° 0 mm 2 mps 762 mmHg 79%
    23:00 +6°C° 0 mm 2 mps 761 mmHg 80%
    Show more